Weather in Giblitsy

Russia / Ryazan Oblast     54°57′49″N   41°05′26″E
temp.,
°C
wind,
m/s
gust,
m/s
humid.,
%
clouds,
%
prec.,
mm/h
press.,
hPa
HPBL,
m
18 september, sat
sat1800:00+2n23825 0.0 102246
03:00+1nne23785 0.0 102244
06:00+1nne22937 0.0 102327
09:00+7ne246068 0.0 1024522
12:00+11ne2347100 0.0 10231473
15:00+12ne3345100 0.0 10231519
18:00+8ene3757100 0.0 1023277
21:00+5ene2869100 0.0 1024193
19 september, sun
sun1900:00+5ene3876100 0.0 1024221
03:00+4e3971100 0.0 1024319
06:00+4ene3872100 0.0 1024250
09:00+6e4858100 0.0 1024412
12:00+10e5744100 0.0 10231032
15:00+11e4743100 0.0 10221242
18:00+10e5946100 0.0 1021968
21:00+8ese4964100 0.2 1021867
20 september, mon
mon2000:00+6e51277100 0.8 1020731
03:00+5e61591100 4.7 1019759
06:00+5e71593100 4.0 1018928
09:00+6e61493100 5.2 10181071
12:00+6e61393100 0.9 10181030
15:00+6e61292100 1.1 1017959
18:00+6e61394100 1.8 1017936
21:00+6e61393100 3.0 1017915
21 september, tue
tue2100:00+6e61394100 1.8 1015845
03:00+6e61395100 4.5 1014777
06:00+7e51296100 4.2 1013681
09:00+7e51294100 4.8 1012626
12:00+7ese41095100 2.9 1011656
15:00+8ese2796100 4.3 1011409
18:00+8e2398100 0.1 101176
21:00+9ese1197100 0.1 101119
22 september, wed
wed2200:00+8s1197100 0.0 101027
03:00+8sw119599 0.0 100910
06:00+7sw1196100 0.0 100935
09:00+9ssw2394100 0.1 1009323
12:00+8sw2389100 0.1 1010308
15:00+11sw337899 0.3 1010689
18:00+8ssw118986 0.2 101134
21:00+7s2391100 0.2 101173